Bisbee Douglas International Airport Douglas Bisbee US
ICAO: KDUG
IATA: DUG
Category: Medium
Scheduled Services: No

Elevation: 4154 ft
TransAlt. 18000 ft.

Airport Communications:
ASOS:119.275
PRESCOTT RDO:122.4
CTAF/UNICOM:123

KDUG Zoom In..

Runways:

(A) RW 08 length 4966 ft width 60 ft
---- / hdg 78

(B) RW 17 length 6430 ft width 100 ft
---- / hdg 168

(C) RW 26 length 4966 ft width 60 ft
---- / hdg 258

(D) RW 35 length 6430 ft width 100 ft
---- / hdg 348

Location; KDUG
Day. 23 / Time. 21.56 Zulu
* Altimeter: 29.98
* Temperature: 31° c. 87.8°f.
* Wind from: 220° Speed 14 kn.
Dewpoint: -06° c.
Visibility: 10 Statute Miles.
Clouds: Clear (automated report).

KDUG 232156Z AUTO 22014KT 10SM CLR 31/M06 A2998 RMK AO2 SLP086 T03111056


Wind From 220°
Speed 14 kn.

 
 
jpsmedia.com for Web Design SOUNDCLOUD worldairports.se 2018   terms of use